Content
SEND FEEDBACK

Daily
Averages
Monthly
Summary
United States of America

GREENFIELD, MASSACHUSETTS


Home > North America > United States > Massachusetts
Elevation: 190 feet     Latitude: 42 37N     Longitude: 072 33W

WEATHER
 
SELECT A DAY
Number of Records: 217,946;   Date Range: 7/1/96 - 12/27/14
 
SHARE

PRINT THIS DATA

[ ← Previous Day ]
WEATHER ALMANAC - DECEMBER 16, 2013
[ Next Day → ]
[ °C ]   °F
Weather ElementAverageHighLow
Temperature19.5 °F24.1 °F (3:52 am)6.1 °F (11:52 pm)
Dewpoint7.3 °F18 °F (2:52 am) (7:00 pm)
Humidity60.4 %92 % (1:52 am)46 % (11:52 am)
Barometer29.98 in30.20 in (10:52 pm)29.75 in (2:03 am)
Wind Speed9 mph17.3 mph (5:52 am)
Wind Gust25.3 mph (5:52 am)
Weather ElementAverage
Visibility9.3 mi
Wind DirectionWSW (259.2 °)

Weather ElementTotal
Precipitation---
Heating Degree Days49.9 (Base 65)
Averaged from 25 records on December 16, 2013
WEATHER CONDITIONS BREAKOUT
WIND DIRECTION BREAKOUT
WEATHER BY HOUR - DECEMBER 16, 2013
[ °C ]   °F
Local TimeTemperatureDewpointHumidityBarometerVisibilityWind DirectionWind SpeedGust SpeedPrecipitationEventsConditions
1:52 AM18.0 °F16.0 °F92 %29.77 in9.0 miWNW (290°)4.6 mphOvercast
2:03 AM19.0 °F16.0 °F88 %29.75 in2.5 miWSW (250°)3.5 mph0.00 inSnowLight Snow
2:11 AM19.0 °F16.0 °F88 %29.75 in3.0 miSSW (210°)3.5 mph0.00 inSnowLight Snow
2:52 AM23.0 °F18.0 °F81 %29.79 in9.0 miWest (270°)4.6 mph0.00 inOvercast
3:52 AM24.1 °F15.1 °F69 %29.80 in10.0 miWest (280°)9.2 mph17.3 mphOvercast
4:52 AM23.0 °F8.1 °F53 %29.82 in10.0 miWest (280°)9.2 mphPartly Cloudy
5:52 AM21.9 °F7.0 °F53 %29.86 in10.0 miWest (270°)17.3 mph25.3 mphClear
6:52 AM19.9 °F7.0 °F57 %29.89 in10.0 miWest (260°)10.4 mphClear
7:52 AM19.9 °F7.0 °F57 %29.93 in10.0 miWest (270°)9.2 mphClear
8:52 AM21.0 °F7.0 °F55 %29.96 in10.0 miWest (280°)10.4 mphClear
9:52 AM21.9 °F6.1 °F51 %29.99 in10.0 miWNW (290°)15.0 mph25.3 mphClear
10:52 AM23.0 °F6.1 °F48 %29.99 in10.0 miWest (280°)12.7 mph20.7 mphPartly Cloudy
11:52 AM23.0 °F5.0 °F46 %29.99 in10.0 miWest (260°)15.0 mphPartly Cloudy
12:52 PM24.1 °F6.1 °F46 %29.99 in10.0 miWNW (300°)11.5 mph21.9 mphClear
1:52 PM23.0 °F6.1 °F48 %30.00 in10.0 miWNW (300°)16.1 mph21.9 mphPartly Cloudy
2:52 PM23.0 °F7.0 °F50 %30.02 in10.0 miWest (280°)11.5 mph18.4 mphMostly Cloudy
3:52 PM21.0 °F3.9 °F48 %30.05 in10.0 miWest (270°)9.2 mphScattered Clouds
4:52 PM19.9 °F3.9 °F50 %30.08 in10.0 miWest (280°)9.2 mphPartly Cloudy
5:52 PM18.0 °F5.0 °F57 %30.10 in10.0 miVariable3.5 mphMostly Cloudy
6:52 PM15.1 °F5.0 °F64 %30.13 in10.0 miWest (270°)5.8 mphClear
7:52 PM17.1 °F3.9 °F56 %30.16 in10.0 miWest (270°)10.4 mphClear
8:52 PM16.0 °F3.9 °F59 %30.18 in10.0 miWSW (240°)6.9 mphClear
9:52 PM16.0 °F1.9 °F54 %30.19 in10.0 miWest (270°)8.1 mphClear
10:52 PM12.0 °F1.9 °F64 %30.20 in10.0 miNW (310°)4.6 mphClear
11:52 PM6.1 °F0.0 °F76 %30.20 in10.0 miSSW (200°)4.6 mphClear
Hourly data recorded from KORE, located miles away from Greenfield, Massachusetts







STORIES FROM OUR PARTNERS